Погода в Вартемягах

Россия / Санкт-Петербург и Ленинградская область     60°10′21″N   30°19′14″E
темп.,
°C
ветер,
м/с
пор.,
м/с
влажн.,
%
обл.,
%
осадки,
мм/ч
давл.,
гПа
погр.,
м
27 ноября, сб
сб2700:00−6сз119595 0.0 100234
03:00−4ссв1385100 0.0 1004170
06:00−6ссв2588100 0.0 1005153
09:00−6ссв378890 0.0 1006217
12:00−3св3879100 0.0 1006567
15:00−3св5977100 0.0 1005698
18:00−3св61276100 0.0 1004737
21:00−3св61373100 0.0 1003794
28 ноября, вс
вс2800:00−3св71378100 0.0 1001788
03:00−3св61378100 0.0 1001795
06:00−3св61285100 0.1 1000829
09:00−4ссв61291100 0.4 1000832
12:00−4ссв51191100 0.6 1001818
15:00−4ссв51091100 1.2 1003767
18:00−4св5109087 0.3 1005755
21:00−5св4108598 0.3 1006656
29 ноября, пн
пн2900:00−5св388899 0.1 1008488
03:00−4всв3885100 0.1 1009629
06:00−5в3890100 0.2 1009678
09:00−5в4983100 0.3 1009833
12:00−5в51087100 0.1 1008770
15:00−5всв51086100 0.1 1005692
18:00−5всв51187100 0.1 1002670
21:00−5всв61293100 0.3 999581
30 ноября, вт
вт3000:00−4св61393100 0.8 995662
03:00−4св61392100 1.6 990771
06:00−4св51192100 0.7 986767
09:00−4ссв51094100 1.6 984815
12:00−4с51093100 0.8 983711
15:00−5ссз4893100 1.6 982697
18:00−7сз4989100 0.6 982442
21:00−8зсз3890100 0.6 982406
1 декабря, ср
ср100:00−8зсз499381 0.0 982441
03:00−8з499272 0.0 983398
06:00−8з399017 0.0 984362
09:00−8з39918 0.0 984289
12:00−7з39849 0.0 986602
15:00−7з388380 0.0 986482
18:00−7з388798 0.0 987446
21:00−7зюз269098 0.0 987265